EW6958 Weather Reports


time (UTC)temp
C
wind
direction
speed
KPH
gust
KPH
rain 1hr
cm
rain 24hr
cm
rain mn
cm
humidity
%
barometer
mb
20200221035318 3 252 11.3 16.1 0.00 0.43 0.00 79 1020.0
20200221034316 3 241 11.3 20.9 0.00 0.41 0.00 79 1020.0
20200221033322 3 240 11.3 17.7 0.00 0.43 0.00 79 1020.0
20200221032321 3 269 8.0 14.5 0.00 0.43 0.00 78 1020.0
20200221031321 3 260 11.3 14.5 0.00 0.43 0.00 78 1019.0
20200221030321 -17 252 12.9 17.7 0.00 0.43 0.00 1019.0
20200221025320 3 271 16.1 17.7 0.00 0.43 0.00 79 1019.0
20200221024122 3 282 16.1 24.1 0.00 0.43 0.00 79 1019.0
20200221023121 3 258 14.5 16.1 0.00 0.43 0.00 79 1018.0
20200221022118 3 265 17.7 25.7 0.00 0.43 0.00 78 1018.0
20200221021121 3 247 11.3 17.7 0.00 0.41 0.00 78 1018.0
20200221020118 3 288 14.5 16.1 0.00 0.43 0.00 78 1018.0
20200221015117 3 282 17.7 20.9 0.00 0.43 0.00 79 1018.0
20200221014121 3 282 12.9 25.7 0.00 0.43 0.00 80 1018.0
20200221013121 3 281 14.5 27.4 0.00 0.43 0.00 81 1018.0
20200221012121 3 262 16.1 20.9 0.00 0.43 0.00 81 1018.0
20200221011121 4 267 17.7 20.9 0.00 0.43 0.00 82 1017.0
20200221010116 -17 276 20.9 24.1 0.00 0.43 0.00 1017.0
20200221005118 4 282 17.7 24.1 0.00 0.43 0.00 83 1017.0
20200221004121 4 286 20.9 24.1 0.00 0.43 0.00 83 1016.0
20200221003122 4 264 17.7 17.7 0.00 0.43 0.00 83 1016.0
20200221002122 4 288 22.5 24.1 0.00 0.43 0.00 83 1016.0
20200221001122 4 281 14.5 30.6 0.00 0.43 0.00 83 1016.0
20200221000121 -17 297 16.1 25.7 0.00 0.43 0.00 1014.0
20200220235120 4 293 17.7 32.2 0.00 0.43 0.00 84 1014.0
20200220234118 4 273 22.5 24.1 0.00 0.43 0.00 84 1014.0
20200220233116 -17 275 27.4 41.8 0.00 0.43 0.00 1013.0
20200220232122 5 285 19.3 24.1 0.00 0.43 0.00 88 1013.0
20200220231122 5 293 11.3 16.1 0.00 0.43 0.00 87 1014.0
20200220230122 5 270 12.9 17.7 0.00 0.43 0.00 88 1013.0
20200220225117 5 257 16.1 16.1 0.00 0.43 0.41 87
20200220224120 5 283 12.9 16.1 0.00 0.33 0.30 86 1013.0
20200220223118 5 288 16.1 17.7 0.00 0.33 0.30 86 1012.0
20200220222121 5 297 14.5 20.9 0.00 0.33 0.30 86 1012.0
20200220221119 5 278 25.7 37.0 0.00 0.33 0.30 86 1012.0
20200220220121 5 258 16.1 43.5 0.00 0.33 0.30 87 1012.0
20200220215121 5 270 16.1 19.3 0.00 0.33 0.30 86 1012.0
20200220214122 5 276 14.5 24.1 0.20 0.30 0.30 85 1011.0
20200220213119 -17 271 14.5 16.1 0.30 0.30 0.30 1011.0
20200220212118 6 268 12.9 22.5 0.10 0.20 0.20 84 1011.0
20200220211127 6 278 19.3 25.7 0.10 0.20 0.20 83 1010.0
20200220210123 6 270 25.7 49.9 0.10 0.20 0.20 83 1008.0
20200220205117 7 221 27.4 27.4 0.00 0.10 0.10 85 1008.0
20200220204142 -17 214 20.9 20.9 0.10 0.10 0.10 1008.0
20200220203118 7 227 19.3 20.9 0.00 0.00 0.00 82 1007.0
20200220202119 7 234 14.5 20.9 0.00 0.00 0.00 81 1007.0
20200220201117 8 221 16.1 20.9 0.00 0.00 0.00 79 1008.0
20200220200121 8 243 19.3 41.8 0.00 0.00 0.00 77 1008.0
20200220195121 8 232 14.5 17.7 0.00 0.00 0.00 77 1008.0
20200220194122 -17 258 17.7 24.1 0.00 0.00 0.00 1008.0
20200220193122 8 230 14.5 14.5 0.00 0.00 0.00 73 1009.0
20200220192116 -17 259 17.7 25.7 0.00 0.00 0.00 1009.0
20200220191120 8 234 14.5 20.9 0.00 0.00 0.00 68 1009.0
20200220190118 9 192 16.1 19.3 0.00 0.00 0.00 66 1009.0
20200220185122 -17 226 14.5 29.0 0.00 0.00 0.00 1009.0
20200220184118 8 209 14.5 22.5 0.00 0.00 0.00 67 1009.0
20200220183122 8 201 14.5 17.7 0.00 0.00 0.00 67 1009.0
20200220182122 8 238 12.9 24.1 0.00 0.00 0.00 67 1009.0
20200220181121 8 193 12.9 16.1 0.00 0.00 0.00 68 1010.0
20200220180119 8 194 11.3 19.3 0.00 0.00 0.00 69 1010.0
20200220175118 -17 169 14.5 30.6 0.00 0.00 0.00 1010.0
20200220174121 8 197 9.7 14.5 0.00 0.00 0.00 69 1010.0
20200220173121 8 208 12.9 17.7 0.00 0.00 0.00 69 1010.0
20200220172122 8 179 14.5 16.1 0.00 0.00 0.00 69 1010.0
20200220171120 8 207 16.1 17.7 0.00 0.00 0.00 68 1011.0
20200220170121 8 234 11.3 14.5 0.00 0.00 0.00 68 1011.0
20200220165120 8 214 16.1 27.4 0.00 0.00 0.00 69 1011.0
20200220164117 8 209 16.1 16.1 0.00 0.00 0.00 69 1010.0
20200220163122 8 193 14.5 17.7 0.00 0.00 0.00 69 1012.0
20200220162126 -17 174 17.7 19.3 0.00 0.00 0.00 1012.0
20200220161115 8 214 11.3 12.9 0.00 0.00 0.00 69 1012.0
20200220160122 9 219 16.1 19.3 0.00 0.00 0.00 68 1013.0
20200220155121 9 225 12.9 16.1 0.00 0.00 0.00 68 1013.0
20200220154123 -17 217 12.9 14.5 0.00 0.00 0.00 1012.0
20200220153117 9 249 12.9 24.1 0.00 0.00 0.00 68 1012.0
20200220152121 9 262 14.5 20.9 0.00 0.00 0.00 68 1012.0
20200220151117 -17 248 14.5 16.1 0.00 0.00 0.00 1012.0
20200220150122 10 228 12.9 33.8 0.00 0.00 0.00 65 1012.0
20200220145121 10 234 12.9 19.3 0.00 0.00 0.00 65 1012.0
20200220144121 -17 226 16.1 24.1 0.00 0.00 0.00 1012.0
20200220143122 -17 234 8.0 12.9 0.00 0.00 0.00 1013.0
20200220142122 10 219 16.1 19.3 0.00 0.00 0.00 65 1013.0
20200220141122 10 242 16.1 19.3 0.00 0.00 0.00 65 1013.0
20200220140122 10 192 9.7 22.5 0.00 0.00 0.00 67 1013.0
20200220135121 10 207 11.3 19.3 0.00 0.00 0.00 67 1013.0
20200220134118 10 243 16.1 20.9 0.00 0.00 0.00 67 1013.0
20200220133122 10 233 20.9 20.9 0.00 0.00 0.00 67 1014.0
20200220132119 -17 253 19.3 20.9 0.00 0.00 0.00 1014.0
20200220131117 10 215 16.1 22.5 0.00 0.00 0.00 67 1014.0
20200220130122 10 213 16.1 20.9 0.00 0.00 0.00 68
20200220125122 10 203 24.1 25.7 0.00 0.00 0.00 69
20200220124122 9 229 17.7 22.5 0.00 0.00 0.00 74 1013.0
20200220123119 9 236 14.5 19.3 0.00 0.00 0.00 75 1014.0
20200220122121 8 248 12.9 12.9 0.00 0.00 0.00 73 1014.0
20200220121116 9 233 9.7 12.9 0.00 0.00 0.00 72 1015.0
20200220120116 9 215 19.3 25.7 0.00 0.00 0.00 69 1014.0
20200220115122 10 240 12.9 20.9 0.00 0.00 0.00 67 1014.0
20200220114122 10 245 22.5 24.1 0.00 0.00 0.00 67 1015.0
20200220113122 10 253 17.7 20.9 0.00 0.00 0.00 68 1015.0
20200220112122 10 242 9.7 12.9 0.00 0.00 0.00 70 1015.0
20200220111121 9 225 14.5 20.9 0.00 0.00 0.00 70 1016.0
20200220110118 9 239 16.1 24.1 0.00 0.00 0.00 69 1016.0
20200220104823 9 244 9.7 16.1 0.00 0.00 0.00 70 1016.0
20200220103821 9 249 12.9 16.1 0.00 0.00 0.00 70 1016.0
20200220102821 9 231 19.3 19.3 0.00 0.00 0.00 70 1016.0
20200220101822 9 249 12.9 16.1 0.00 0.00 0.00 71 1016.0
20200220100821 -17 227 17.7 20.9 0.00 0.00 0.00 1016.0
20200220095819 9 225 19.3 19.3 0.00 0.00 0.00 72 1016.0
20200220094817 9 229 17.7 24.1 0.00 0.00 0.00 74 1016.0
20200220093822 -17 203 17.7 20.9 0.00 0.00 0.00 1016.0
20200220092822 8 217 11.3 11.3 0.00 0.00 0.00 76 1016.0
20200220091823 8 242 12.9 14.5 0.00 0.00 0.00 77 1016.0
20200220090822 8 214 11.3 24.1 0.00 0.00 0.00 77 1016.0
20200220085821 8 241 11.3 24.1 0.00 0.00 0.00 77 1016.0
20200220084828 8 235 9.7 16.1 0.00 0.00 0.00 78 1016.0
20200220083817 8 214 9.7 11.3 0.00 0.00 0.00 78 1016.0
20200220082822 7 232 9.7 12.9 0.00 0.00 0.00 79 1016.0
20200220081817 7 217 12.9 17.7 0.00 0.00 0.00 80 1016.0
20200220080823 -17 225 11.3 16.1 0.00 0.00 0.00 1016.0
20200220075820 -17 191 11.3 11.3 0.00 0.00 0.00 1016.0
20200220074821 7 203 8.0 9.7 0.00 0.00 0.00 81 1016.0
20200220073819 -17 194 11.3 11.3 0.00 0.00 0.00 1016.0
20200220072817 7 195 6.4 9.7 0.00 0.00 0.00 81 1016.0
20200220071822 -17 190 9.7 11.3 0.00 0.00 0.00 1016.0
20200220070819 7 227 11.3 11.3 0.00 0.00 0.00 82 1016.0
20200220065816 6 219 9.7 9.7 0.00 0.00 0.00 82 1016.0
20200220064822 6 213 11.3 14.5 0.00 0.00 0.00 83 1016.0
20200220063822 6 217 11.3 20.9 0.00 0.10 0.00 83 1016.0
20200220062815 6 203 12.9 17.7 0.00 0.10 0.00 83 1016.0
20200220061817 6 231 11.3 11.3 0.00 0.10 0.00 84 1016.0
20200220060822 6 211 11.3 12.9 0.00 0.10 0.00 84 1016.0
20200220055822 6 225 9.7 11.3 0.00 0.10 0.00 85 1017.0
20200220054822 -17 231 8.0 9.7 0.00 0.10 0.00 1017.0
20200220053817 6 224 8.0 17.7 0.00 0.10 0.00 87 1017.0
20200220052823 -17 194 6.4 14.5 0.00 0.10 0.00 1017.0
20200220051822 5 240 6.4 12.9 0.00 0.10 0.00 87 1017.0
20200220050817 5 188 8.0 16.1 0.00 0.10 0.00 87 1017.0
20200220045822 -17 214 9.7 14.5 0.00 0.10 0.00 1017.0
20200220044816 5 202 6.4 9.7 0.00 0.10 0.00 87 1017.0
20200220043822 5 199 8.0 16.1 0.00 0.43 0.00 86 1017.0
20200220042822 5 260 8.0 12.9 0.00 0.43 0.00 85 1017.0
20200220041821 5 205 8.0 9.7 0.00 0.23 0.00 85 1017.0
20200220040818 5 202 4.8 12.9 0.00 0.43 0.00 84 1017.0
20200220035817 5 218 9.7 11.3 0.00 0.33 0.00 84 1017.0